COSMOS 2251 DEB, 38220

Orbit data source: Space-Track

COSMOS 2251 DEB, 38220 is space debris in LEO originally from a launch on Wed, 16 Jun 1993 UTC launched from the Plesetsk Missile And Space Complex (PKMTR). The debris from Iridium 33, an American commercial communications satellite, has been tracked extensively since its accidental collision with the defunct Russian satellite Cosmos 2251 in 2009. This event, occurring at high speed in low Earth orbit (LEO), generated thousands of pieces of space debris, significantly increasing the risk of further collisions. The Iridium 33 debris cloud has impacted space traffic management and orbital debris mitigation strategies, making it a subject of ongoing study in space situational awareness.

Loading next visibility...
Identifier
38220, 1993-036BTL
Orbit
LEO
Country
Flag of CISCIS
Related business
Manufacturer
Unknown
Mission
Spacecraft
Bus & Motor
Unknown
Mass
Unknown
Launch date (UTC)
1993-06-16 (33 years ago)
Launch vehicle
Unknown
Launch site
Plesetsk Missile And Space Complex (PKMTR)
Object type
Payload
Rocket body
Debris
Shape & HBR
Unknown shape, 0.1 m
Radar Cross Section
Small (<0.1 m²)

Expand to show TLE details & history
Last TLE update: 11 hours ago

TLE from 11 hours ago
0 COSMOS 2251 DEB
1 38220U 93036BTL 25353.89119340  .00017953  00000-0  17121-2 0  9998
2 38220  74.0148  53.8959 0005462  25.3651 334.7800 14.93308303714774
Epoch: 2025-12-19T21:23Z
TLE epoch observation values (Epoch: 2025-12-19T21:23:19.109Z)
Latitude
0.00003°
Longitude
4.34044°
Altitude
586.865 km
Speed
7.569 km/s
True Right ascension
03h 35m 35s
True Declination
0° 00' 00"
Sunlit
Object was in full shadow at epoch
Visualization orbit readout
Latitude
Unknown
Longitude
Unknown
Altitude
Unknown
Speed
Unknown
Apparent Right ascension
Unknown
Apparent Declination
Unknown
Sunlit
N/A
Visualization observer readout
Local Sidereal Time
07:17:57
Azimuth
Unknown
Elevation
Unknown
Doppler factor
Unknown
Orbital elements
Apogee altitude
588.995 km
Perigee altitude
581.388 km
Semi-major axis
6,963.328 km
Eccentricity
0.00055
Inclination
74.0148°
RAAN
53.8959°
Arg. of periapsis
25.3651°
True anomaly
334.75331°
Mean anomaly
334.78°
Eccentric anomaly
334.76666°
Mean motion
3.73523 °/min
Orbital period
96.38 mins
BSTAR
0.0017121
Loading maneuver chart data...
Computing Atmospheric mass density...

Documentation

Showing up to 5 results
|